Location: Mentone
(34.5413°N, 85.5351°W)
Time: 23:56:24
(UTC-05:00)

Cosmos 2150 Rocket - Visible Passes

Search period start: 25 August 2016 00:00
Search period end: 04 September 2016 00:00
Orbit: 750 x 808 km, 74.0° (Epoch: 25 August)

Date Brightness Start Highest point End Pass type
(mag) Time Alt. Az. Time Alt. Az. Time Alt. Az.
25 Aug 4.6 20:48:57 10° N 20:53:40 35° ENE 20:54:22 34° E visible
25 Aug 6.1 22:31:48 10° NW 22:34:53 21° W 22:34:53 21° W visible
26 Aug 5.3 20:15:44 10° NNE 20:19:42 22° ENE 20:21:30 18° E visible
26 Aug 5.1 21:57:21 10° NW 22:02:01 36° W 22:02:01 36° W visible
27 Aug 5.8 19:43:08 10° NNE 19:45:38 13° ENE 19:48:09 10° E visible
27 Aug 4.3 21:23:15 10° NNW 21:28:20 62° WSW 21:29:13 53° SSW visible
28 Aug 3.8 20:49:24 10° NNW 20:54:34 78° ENE 20:56:29 40° SSE visible
29 Aug 4.3 20:15:48 10° N 20:20:45 46° ENE 20:23:51 21° SE visible
29 Aug 6.3 21:59:25 10° WNW 22:02:34 16° W 22:04:23 14° WSW visible
30 Aug 5.0 19:42:25 10° N 19:46:50 28° ENE 19:51:14 10° SE visible
30 Aug 5.7 21:24:39 10° NW 21:28:59 28° W 21:31:50 17° SW visible
31 Aug 4.9 20:50:24 10° NNW 20:55:20 47° WSW 20:59:25 15° S visible
01 Sep 4.0 20:16:26 10° NNW 20:21:36 81° WSW 20:26:48 10° SSE visible
02 Sep 4.0 19:42:42 10° N 19:47:48 60° ENE 19:52:56 10° SSE visible
02 Sep 6.8 21:27:28 10° WNW 21:29:28 12° W 21:31:30 10° WSW visible
03 Sep 6.3 20:52:04 10° NW 20:55:55 21° W 20:59:47 10° SW visible
